• Em Portugal
  • Lista de países
  • Para 7 dias
  • Temperatura da água
  • Mapas de satélite
  • Mapa do tempo
  • Widgets de tempo
  • user-avatar
    Iniciar Sessão

    Previsão horária em Pekanino

    Hoje, 19 Junho, Terça-feira

    Tempo Temperatura Precipitação Vento Pressão Humidade
    00:00 +16°C° 0 mm 3 m/s 760 mmHg 86%
    01:00 +14°C° 0 mm 4 m/s 759 mmHg 88%
    02:00 +14°C° 0 mm 4 m/s 759 mmHg 87%
    03:00 +14°C° 0 mm 4 m/s 759 mmHg 87%
    04:00 +14°C° 0 mm 5 m/s 759 mmHg 87%
    05:00 +15°C° 0,1 mm 5 m/s 759 mmHg 86%
    06:00 +16°C° 0,1 mm 6 m/s 759 mmHg 84%
    07:00 +19°C° 0,1 mm 6 m/s 759 mmHg 83%
    08:00 +18°C° 0,1 mm 7 m/s 759 mmHg 77%
    09:00 +20°C° 0,1 mm 7 m/s 759 mmHg 71%
    10:00 +21°C° 0,1 mm 7 m/s 760 mmHg 65%
    11:00 +21°C° 0 mm 7 m/s 760 mmHg 61%
    12:00 +22°C° 0 mm 7 m/s 760 mmHg 57%
    13:00 +23°C° 0 mm 7 m/s 760 mmHg 53%
    14:00 +23°C° 0 mm 7 m/s 760 mmHg 57%
    15:00 +23°C° 0 mm 7 m/s 760 mmHg 61%
    16:00 +22°C° 0 mm 6 m/s 760 mmHg 65%
    17:00 +21°C° 0,1 mm 6 m/s 760 mmHg 69%
    18:00 +21°C° 0,1 mm 6 m/s 760 mmHg 73%
    19:00 +20°C° 0,1 mm 5 m/s 761 mmHg 77%
    20:00 +17°C° 0 mm 5 m/s 761 mmHg 83%
    21:00 +17°C° 0 mm 4 m/s 761 mmHg 89%
    22:00 +15°C° 0 mm 4 m/s 762 mmHg 95%
    23:00 +14°C° 0 mm 4 m/s 762 mmHg 95%

    Amanhã, 20 Junho, Quarta-feira

    Tempo Temperatura Precipitação Vento Pressão Humidade
    00:00 +14°C° 0 mm 4 m/s 762 mmHg 95%
    01:00 +13°C° 0 mm 3 m/s 762 mmHg 95%
    02:00 +13°C° 0 mm 3 m/s 763 mmHg 94%
    03:00 +12°C° 0 mm 3 m/s 763 mmHg 94%
    04:00 +12°C° 0 mm 3 m/s 763 mmHg 93%
    05:00 +13°C° 0 mm 3 m/s 763 mmHg 84%
    06:00 +15°C° 0 mm 4 m/s 763 mmHg 74%
    07:00 +18°C° 0 mm 4 m/s 763 mmHg 65%
    08:00 +19°C° 0 mm 4 m/s 763 mmHg 58%
    09:00 +20°C° 0 mm 4 m/s 763 mmHg 51%
    10:00 +22°C° 0 mm 5 m/s 763 mmHg 44%
    11:00 +22°C° 0 mm 5 m/s 763 mmHg 41%
    12:00 +23°C° 0 mm 5 m/s 762 mmHg 39%
    13:00 +25°C° 0 mm 5 m/s 762 mmHg 36%
    14:00 +25°C° 0 mm 5 m/s 762 mmHg 37%
    15:00 +26°C° 0 mm 5 m/s 761 mmHg 38%
    16:00 +26°C° 0 mm 5 m/s 761 mmHg 40%
    17:00 +25°C° 0 mm 4 m/s 761 mmHg 46%
    18:00 +23°C° 0 mm 4 m/s 760 mmHg 53%
    19:00 +24°C° 0 mm 3 m/s 760 mmHg 60%
    20:00 +21°C° 0 mm 3 m/s 760 mmHg 67%
    21:00 +20°C° 0 mm 3 m/s 760 mmHg 73%
    22:00 +18°C° 0 mm 4 m/s 760 mmHg 79%
    23:00 +18°C° 0 mm 3 m/s 760 mmHg 83%

    Depois de amanhã, 21 Junho, Quinta-feira

    Tempo Temperatura Precipitação Vento Pressão Humidade
    00:00 +18°C° 0 mm 3 m/s 759 mmHg 87%
    01:00 +17°C° 0 mm 3 m/s 759 mmHg 91%
    02:00 +17°C° 0 mm 3 m/s 759 mmHg 92%
    03:00 +17°C° 0 mm 3 m/s 758 mmHg 93%
    04:00 +16°C° 0 mm 3 m/s 758 mmHg 94%
    05:00 +18°C° 0 mm 4 m/s 757 mmHg 87%
    06:00 +20°C° 0 mm 4 m/s 757 mmHg 79%
    07:00 +22°C° 0 mm 5 m/s 756 mmHg 72%
    08:00 +25°C° 0,1 mm 5 m/s 756 mmHg 65%
    09:00 +26°C° 0,1 mm 6 m/s 755 mmHg 59%
    10:00 +28°C° 0,1 mm 6 m/s 754 mmHg 52%
    11:00 +28°C° 0,4 mm 6 m/s 753 mmHg 52%
    12:00 +28°C° 0,4 mm 6 m/s 753 mmHg 51%
    13:00 +28°C° 0,4 mm 6 m/s 752 mmHg 51%
    14:00 +26°C° 1,1 mm 7 m/s 751 mmHg 62%
    15:00 +23°C° 1,1 mm 7 m/s 751 mmHg 73%
    16:00 +21°C° 1,1 mm 7 m/s 751 mmHg 85%
    17:00 +18°C° 0,3 mm 7 m/s 751 mmHg 85%
    18:00 +16°C° 0,3 mm 7 m/s 751 mmHg 85%
    19:00 +12°C° 0,3 mm 7 m/s 751 mmHg 84%
    20:00 +12°C° 0,1 mm 7 m/s 751 mmHg 83%
    21:00 +11°C° 0,1 mm 8 m/s 751 mmHg 81%
    22:00 +11°C° 0,1 mm 9 m/s 752 mmHg 80%
    23:00 +11°C° 0,2 mm 9 m/s 752 mmHg 79%

    22 Junho, Sexta-feira

    Tempo Temperatura Precipitação Vento Pressão Humidade
    00:00 +10°C° 0,2 mm 9 m/s 751 mmHg 79%
    01:00 +10°C° 0,2 mm 9 m/s 751 mmHg 79%
    02:00 +10°C° 0,3 mm 9 m/s 751 mmHg 80%
    03:00 +10°C° 0,3 mm 9 m/s 752 mmHg 82%
    04:00 +8°C° 0,3 mm 9 m/s 752 mmHg 83%
    05:00 +10°C° 0,3 mm 9 m/s 752 mmHg 78%
    06:00 +11°C° 0,3 mm 9 m/s 752 mmHg 73%
    07:00 +12°C° 0,3 mm 10 m/s 752 mmHg 68%
    08:00 +12°C° 0,2 mm 10 m/s 753 mmHg 66%
    09:00 +13°C° 0,2 mm 9 m/s 753 mmHg 64%
    10:00 +13°C° 0,2 mm 9 m/s 753 mmHg 62%
    11:00 +13°C° 0,4 mm 8 m/s 753 mmHg 65%
    12:00 +15°C° 0,4 mm 8 m/s 753 mmHg 67%
    13:00 +15°C° 0,4 mm 7 m/s 753 mmHg 70%
    14:00 +15°C° 0,5 mm 7 m/s 754 mmHg 72%
    15:00 +15°C° 0,5 mm 7 m/s 754 mmHg 74%
    16:00 +15°C° 0,5 mm 7 m/s 754 mmHg 76%
    17:00 +15°C° 0,2 mm 7 m/s 754 mmHg 73%
    18:00 +14°C° 0,2 mm 7 m/s 754 mmHg 70%
    19:00 +14°C° 0,2 mm 7 m/s 755 mmHg 67%
    20:00 +13°C° 0,3 mm 6 m/s 755 mmHg 72%
    21:00 +13°C° 0,3 mm 6 m/s 755 mmHg 76%
    22:00 +12°C° 0,3 mm 5 m/s 755 mmHg 81%
    23:00 +10°C° 0,4 mm 5 m/s 755 mmHg 84%

    23 Junho, Sábado

    Tempo Temperatura Precipitação Vento Pressão Humidade
    00:00 +10°C° 0,4 mm 5 m/s 755 mmHg 88%
    01:00 +10°C° 0,4 mm 5 m/s 755 mmHg 92%
    02:00 +11°C° 0,1 mm 4 m/s 755 mmHg 91%
    03:00 +11°C° 0,1 mm 4 m/s 755 mmHg 91%
    04:00 +11°C° 0,1 mm 4 m/s 755 mmHg 91%
    05:00 +11°C° 0,4 mm 4 m/s 755 mmHg 89%
    06:00 +12°C° 0,4 mm 5 m/s 756 mmHg 88%
    07:00 +13°C° 0,4 mm 5 m/s 756 mmHg 87%
    08:00 +13°C° 0,4 mm 5 m/s 756 mmHg 85%
    09:00 +14°C° 0,4 mm 6 m/s 756 mmHg 83%
    10:00 +15°C° 0,4 mm 6 m/s 756 mmHg 81%
    11:00 +16°C° 0,1 mm 6 m/s 756 mmHg 69%
    12:00 +17°C° 0,1 mm 6 m/s 757 mmHg 57%
    13:00 +18°C° 0,1 mm 7 m/s 757 mmHg 45%
    14:00 +19°C° 0 mm 6 m/s 757 mmHg 44%
    15:00 +19°C° 0 mm 6 m/s 757 mmHg 42%
    16:00 +19°C° 0 mm 6 m/s 757 mmHg 41%
    17:00 +17°C° 0 mm 5 m/s 757 mmHg 46%
    18:00 +16°C° 0 mm 5 m/s 757 mmHg 50%
    19:00 +17°C° 0 mm 4 m/s 757 mmHg 54%
    20:00 +14°C° 0 mm 4 m/s 757 mmHg 61%
    21:00 +13°C° 0 mm 4 m/s 757 mmHg 68%
    22:00 +11°C° 0 mm 4 m/s 758 mmHg 75%
    23:00 +11°C° 0 mm 4 m/s 758 mmHg 79%

    24 Junho, Domingo

    Tempo Temperatura Precipitação Vento Pressão Humidade
    00:00 +11°C° 0 mm 4 m/s 758 mmHg 84%
    01:00 +10°C° 0 mm 4 m/s 758 mmHg 88%
    02:00 +10°C° 0 mm 4 m/s 758 mmHg 90%
    03:00 +10°C° 0 mm 3 m/s 758 mmHg 92%
    04:00 +10°C° 0 mm 3 m/s 758 mmHg 94%
    05:00 +12°C° 0 mm 3 m/s 758 mmHg 86%
    06:00 +14°C° 0 mm 3 m/s 758 mmHg 78%
    07:00 +17°C° 0 mm 3 m/s 758 mmHg 70%
    08:00 +18°C° 0 mm 3 m/s 759 mmHg 62%
    09:00 +19°C° 0 mm 3 m/s 759 mmHg 54%
    10:00 +21°C° 0 mm 3 m/s 759 mmHg 46%
    11:00 +21°C° 0 mm 4 m/s 759 mmHg 44%
    12:00 +21°C° 0 mm 4 m/s 759 mmHg 43%
    13:00 +21°C° 0 mm 4 m/s 759 mmHg 41%
    14:00 +21°C° 0 mm 4 m/s 759 mmHg 41%
    15:00 +21°C° 0 mm 3 m/s 759 mmHg 42%
    16:00 +21°C° 0 mm 3 m/s 759 mmHg 42%
    17:00 +20°C° 0 mm 3 m/s 759 mmHg 47%
    18:00 +19°C° 0 mm 3 m/s 759 mmHg 52%
    19:00 +18°C° 0 mm 2 m/s 759 mmHg 57%
    20:00 +16°C° 0 mm 2 m/s 760 mmHg 63%
    21:00 +14°C° 0 mm 2 m/s 760 mmHg 68%
    22:00 +12°C° 0 mm 2 m/s 760 mmHg 74%
    23:00 +12°C° 0 mm 2 m/s 760 mmHg 75%
    Mostrar mais